Regional Weather Roundup
Issued by NWS

Home | Current Version | Previous Version | Text Only | Print | Product List | Glossary On
Versions: 1 2 3 4 5 6 7 8 9 10 11 12 13 14 15 16 17 18 19 20 21 22 23 24 25 26 27 28 29 30 31 32 33 34 35 36 37 38 39 40 41 42 43 44 45 46 47 48 49 50
000
ASUS43 KOAX 260910
RWRNE

WEATHER ROUNDUP FOR NEBRASKA
NATIONAL WEATHER SERVICE OMAHA NE
400 AM CDT TUE MAY 26 2015

NOTES: SATELLITE DATA IS BEING USED TO AUGMENT CLOUD COVER ABOVE
       12000 FEET.
       "FAIR" INDICATES FEW OR NO CLOUDS BELOW 12,000 FEET WITH NO
       SIGNIFICANT WEATHER AND/OR OBSTRUCTIONS TO VISIBILITY.

  * THESE STATIONS DO NOT REPORT WEATHER SUCH AS RAIN...SNOW OR FOG.

NEZ001>004-019>022-054>056-261000-
NEBRASKA PANHANDLE

CITY           SKY/WX    TMP DP  RH WIND       PRES   REMARKS
SCOTTSBLUFF    FOG       45  45 100 NW6       29.96R VSB 3/4
ALLIANCE       CLOUDY    51  50  96 CALM      29.94R
CHADRON        CLOUDY    54  53  97 N5        29.94S
KIMBALL          N/A    N/A N/A N/A MISG        N/A
SIDNEY         PTCLDY    46  44  93 NW7       29.97S
$$

NEZ057>060-069>072-079>082-261000-
SOUTHWEST NEBRASKA

CITY           SKY/WX    TMP DP  RH WIND       PRES   REMARKS
NORTH PLATTE   MOCLDY    52  50  93 N6        29.89S
IMPERIAL       CLOUDY    52  48  86 NW9       29.92S
LEXINGTON      CLOUDY    56  54  93 NW12      29.85R
MCCOOK         PTCLDY    52  49  89 W9        29.88S
OGALLALA       CLOUDY    53  52  96 CALM      29.93S
$$

NEZ005>010-023>029-035>040-094-261000-
NORTH CENTRAL NEBRASKA

CITY           SKY/WX    TMP DP  RH WIND       PRES   REMARKS
VALENTINE      PTCLDY    53  48  83 N8        29.91R
AINSWORTH      CLEAR     51  51  99 N7        29.89R
BROKEN BOW     CLOUDY    58  55  90 N10       29.83F
O`NEILL        MOCLDY    55  54  97 N12       29.83S
ORD            CLOUDY    59  56  89 NW9       29.80F
THEDFORD       MOCLDY    54  53  95 N7        29.90S
$$

NEZ041-046>049-061>064-073>077-083>087-261000-
SOUTH CENTRAL NEBRASKA

CITY           SKY/WX    TMP DP  RH WIND       PRES   REMARKS
GRAND ISLAND   CLOUDY    57  55  93 N13       29.77F
AURORA         CLOUDY    57  56  99 NE5       29.77R
HASTINGS       CLOUDY    57  55  93 N5        29.76F
HEBRON         CLOUDY    60  55  85 S7        29.76F
HOLDREGE       MOCLDY    56  54  90 NW9       29.82R
KEARNEY *      CLOUDY    57  54  88 NW12      29.80S
YORK           CLOUDY    59  55  88 SE7       29.75F
$$

NEZ011>018-030>034-042>045-261000-
NORTHEAST NEBRASKA

CITY           SKY/WX    TMP DP  RH WIND       PRES   REMARKS
NORFOLK        CLOUDY    56  55  97 CALM      29.77F
ALBION         CLOUDY    57  55  92 NE3       29.79F
BLAIR          CLOUDY    62  56  81 S12       29.78S
COLUMBUS *     CLOUDY   N/A N/A N/A MISG        N/A
FREMONT        CLOUDY    61  59  93 CALM      29.77F
TEKAMAH        CLOUDY    62  60  93 E3        29.77F
WAYNE          CLOUDY    58  57  95 W6        29.78S
$$

NEZ050>053-065>068-078-088>093-261000-
SOUTHEAST NEBRASKA

CITY           SKY/WX    TMP DP  RH WIND       PRES   REMARKS
LINCOLN        CLOUDY    61  56  83 SE8       29.77F
OMAHA EPPLEY   LGT RAIN  64  57  78 S16       29.78S
BEATRICE       LGT RAIN  60  58  91 S10       29.79F
FALLS CITY     LGT RAIN  60  59  96 E6        29.78F
NEBRASKA CITY  RAIN      60  60 100 S12       29.81F
PLATTSMOUTH    CLOUDY    61  57  88 S13       29.79F
$$

NEZ044-045-051>053-067-261000-
OMAHA AREA

CITY           SKY/WX    TMP DP  RH WIND       PRES   REMARKS
OMAHA EPPLEY   LGT RAIN  64  57  78 S16       29.78S
BLAIR          CLOUDY    62  56  81 S12       29.78S
FREMONT        CLOUDY    61  59  93 CALM      29.77F
MILLARD        CLOUDY    63  58  83 SE8G16    29.78S
OFFUTT AFB     CLOUDY    62  59  90 SE10      29.78F
PLATTSMOUTH    CLOUDY    61  57  88 S13       29.79F
WAHOO          PTSUNNY   60  58  93 SE6       29.76F
$$



USA.gov is the U.S. government's official web portal to all federal, state and local government web resources and services.